EW6468 Weather Reports


Display with metric or nautical units.
time (UTC)temp
F
wind
direction
speed
MPH
gust
MPH
rain 1hr
in
rain 24hr
in
rain mn
in
humidity
%
barometer
mb
20260509211537 86 355 1.0 2.0 0.00 0.00 0.00 59 1005.8
20260509210034 86 355 0.0 3.0 0.00 0.00 0.00 61 1005.9
20260509204540 86 355 0.0 3.0 0.00 0.00 0.00 61 1006.1
20260509203028 86 355 1.0 3.0 0.00 0.00 0.00 58 1006.3
20260509201526 87 355 0.0 4.0 0.00 0.00 0.00 59 1006.5
20260509200032 87 329 0.0 2.0 0.00 0.00 0.00 57 1006.6
20260509194529 87 170 2.0 3.0 0.00 0.00 0.00 59 1006.8
20260509193030 86 170 1.0 3.0 0.00 0.00 0.00 60 1007.0
20260509191517 86 20 0.0 3.0 0.00 0.00 0.00 62 1007.3
20260509190015 85 37 1.0 3.0 0.00 0.00 0.00 64 1007.3
20260509184512 85 178 0.0 2.0 0.00 0.00 0.00 65 1007.6
20260509183010 84 178 0.0 2.0 0.00 0.00 0.00 69 1007.7
20260509181510 84 178 0.0 2.0 0.00 0.00 0.00 68 1007.9
20260509180008 84 178 0.0 2.0 0.00 0.00 0.00 70 1008.1
20260509174507 84 178 0.0 2.0 0.00 0.00 0.00 71 1008.4
20260509173004 83 174 0.0 2.0 0.00 0.00 0.00 72 1008.4
20260509171505 82 170 0.0 3.0 0.00 0.00 0.00 74 1008.1
20260509170058 80 151 0.0 2.0 0.00 0.00 0.00 78 1008.3
20260509164554 79 150 0.0 2.0 0.00 0.00 0.00 80 1008.3
20260509163103 78 267 0.0 2.0 0.00 0.00 0.00 80 1008.5
20260509161551 78 257 0.0 2.0 0.00 0.00 0.00 83 1008.6
20260509160052 77 257 0.0 2.0 0.00 0.00 0.00 84 1008.6
20260509154559 77 257 0.0 1.0 0.00 0.00 0.00 85 1008.7
20260509153046 76 257 0.0 1.0 0.00 0.00 0.00 85 1008.8
20260509151546 76 257 0.0 1.0 0.00 0.00 0.00 85 1008.8
20260509150044 76 257 0.0 1.0 0.00 0.00 0.00 85 1008.8
20260509144600 76 257 0.0 0.0 0.00 0.00 0.00 85 1008.6
20260509143042 76 257 0.0 1.0 0.00 0.00 0.00 85 1008.4
20260509141541 75 257 0.0 2.0 0.00 0.00 0.00 86 1008.1
20260509140056 75 257 0.0 0.0 0.00 0.00 0.00 86 1008.1
20260509134542 75 257 0.0 0.0 0.00 0.00 0.00 85 1008.5
20260509133038 75 257 0.0 0.0 0.00 0.00 0.00 85 1008.6
20260509131548 75 267 0.0 0.0 0.00 0.00 0.00 86 1008.7
20260509130036 74 267 0.0 0.0 0.00 0.00 0.00 85 1008.7
20260509124537 74 264 0.0 1.0 0.00 0.00 0.00 85 1008.6
20260509123032 74 264 0.0 0.0 0.00 0.00 0.00 85 1008.8
20260509121544 74 264 0.0 0.0 0.00 0.00 0.00 85 1008.6
20260509120035 74 264 0.0 1.0 0.00 0.00 0.00 85 1007.8
20260509114532 74 264 0.0 1.0 0.00 0.00 0.00 84 1007.7
20260509113028 74 264 0.0 1.0 0.00 0.00 0.00 85 1008.1
20260509111528 74 264 0.0 0.0 0.00 0.00 0.00 85 1008.3
20260509110028 74 264 0.0 1.0 0.00 0.00 0.00 85 1008.3
20260509104524 74 264 0.0 1.0 0.00 0.00 0.00 84 1008.4
20260509103022 73 264 0.0 0.0 0.00 0.00 0.00 84 1008.3
20260509101524 74 264 0.0 0.0 0.00 0.00 0.00 84 1007.6
20260509100024 73 264 0.0 0.0 0.00 0.00 0.00 84 1007.2
20260509094519 74 264 0.0 0.0 0.00 0.00 0.00 84 1007.3
20260509093017 74 264 0.0 0.0 0.00 0.00 0.00 84 1007.7
20260509091514 74 264 0.0 1.0 0.00 0.00 0.00 84 1007.8
20260509090013 73 264 0.0 0.0 0.00 0.00 0.00 83 1007.9
20260509084514 73 264 0.0 0.0 0.00 0.00 0.00 83 1007.8
20260509083010 73 264 0.0 0.0 0.00 0.00 0.00 83 1007.8
20260509081510 73 264 0.0 0.0 0.00 0.00 0.00 83 1007.7
20260509080009 73 264 0.0 0.0 0.00 0.00 0.00 83 1007.7
20260509074509 73 264 0.0 0.0 0.00 0.00 0.00 83 1007.8
20260509073005 73 264 0.0 0.0 0.00 0.00 0.00 83 1008.0
20260509071505 73 264 0.0 1.0 0.00 0.00 0.00 83 1008.0
20260509070004 73 264 0.0 1.0 0.00 0.00 0.00 82 1008.1
20260509064503 73 264 0.0 0.0 0.00 0.00 0.00 82 1008.1
20260509063002 73 264 0.0 0.0 0.00 0.00 0.00 82 1008.1
20260509061600 73 264 0.0 0.0 0.00 0.00 0.00 82 1008.3
20260509054606 73 264 0.0 0.0 0.00 0.00 0.00 82 1008.5
20260509053119 73 264 0.0 0.0 0.00 0.00 0.00 82 1008.6
20260509051546 73 264 0.0 1.0 0.00 0.00 0.00 82 1008.4
20260509050044 73 264 0.0 2.0 0.00 0.00 0.00 82 1008.6
20260509044543 73 264 0.0 2.0 0.00 0.00 0.00 81 1008.7
20260509043101 73 264 0.0 1.0 0.00 0.00 0.00 81 1008.5
20260509041556 73 264 0.0 2.0 0.00 0.00 0.00 81 1008.5
20260509040045 73 264 0.0 1.0 0.00 0.00 0.00 81 1008.4
20260509034558 73 264 0.0 1.0 0.00 0.00 0.00 81 1008.2
20260509033041 73 264 0.0 2.0 0.00 0.00 0.00 81 1008.3
20260509031540 73 264 0.0 2.0 0.00 0.00 0.00 81 1008.0
20260509030040 73 264 0.0 1.0 0.00 0.00 0.00 81 1008.0
20260509024539 73 264 0.0 2.0 0.00 0.00 0.00 81 1008.0
20260509023039 73 331 0.0 2.0 0.00 0.00 0.00 80 1007.8
20260509021538 73 348 0.0 3.0 0.00 0.00 0.00 80 1007.7
20260509020049 73 15 0.0 2.0 0.00 0.00 0.00 80 1007.7
20260509014536 73 282 0.0 2.0 0.00 0.00 0.00 80 1007.6
20260509013047 73 273 0.0 3.0 0.00 0.00 0.00 80 1007.6
20260509011536 73 5 0.0 3.0 0.00 0.00 0.00 80 1007.4
20260509010048 73 15 1.0 3.0 0.00 0.00 0.00 79 1007.3
20260509004534 74 5 0.0 2.0 0.00 0.00 0.00 79 1007.3
20260509003033 74 5 0.0 2.0 0.00 0.00 0.00 79 1007.3
20260509001532 74 334 0.0 3.0 0.00 0.00 0.00 79 1007.6
20260509000032 74 336 1.0 3.0 0.00 0.00 0.00 79 1007.5
20260508234531 74 286 0.0 2.0 0.00 0.00 0.00 78 1007.7
20260508233031 74 139 0.0 3.0 0.00 0.00 0.00 77 1007.7
20260508231530 75 12 0.0 2.0 0.00 0.00 0.00 77 1007.8
20260508230038 75 188 1.0 3.0 0.00 0.00 0.00 76 1007.5
20260508224536 75 180 1.0 3.0 0.00 0.00 0.00 75 1007.5
20260508223027 76 323 0.0 2.0 0.00 0.00 0.00 74 1007.6
20260508221539 76 201 0.0 2.0 0.00 0.00 0.00 74 1007.6
20260508220029 76 201 0.0 1.0 0.00 0.00 0.00 73 1007.7
20260508214525 77 14 0.0 1.0 0.00 0.00 0.00 72 1007.6
20260508213026 77 306 0.0 2.0 0.00 0.00 0.00 72 1007.8